When you browse on this site, cookies collect data to enhance your experience and personalize the content and advertising you see.
Visit our Privacy Policy to learn more. By continuing to use the site, you agree to this use of cookies and data.
  • In Austria
  • List of Countries
  • For 7 days
  • Water Temperature
  • Weather Map
  • News
  • Weather Widgets
  • user-avatar
    Login

    Hourly Weather Jalalabad

    Today, 5 June, Friday

    Time Temperature Precipitation Wind Pressure Humidity
    00:00 +31°C° 0 mm 1 mps 706 mmHg 43%
    01:00 +31°C° 0 mm 1 mps 706 mmHg 45%
    02:00 +28°C° 0 mm 0 mps 706 mmHg 46%
    03:00 +28°C° 0 mm 0 mps 706 mmHg 47%
    04:00 +27°C° 0 mm 0 mps 706 mmHg 48%
    05:00 +26°C° 0 mm 0 mps 705 mmHg 49%
    06:00 +29°C° 0 mm 1 mps 706 mmHg 45%
    07:00 +31°C° 0 mm 1 mps 706 mmHg 41%
    08:00 +32°C° 0 mm 1 mps 707 mmHg 37%
    09:00 +32°C° 0 mm 1 mps 706 mmHg 34%
    10:00 +33°C° 0 mm 1 mps 706 mmHg 32%
    11:00 +34°C° 0 mm 1 mps 706 mmHg 29%
    12:00 +35°C° 0 mm 1 mps 706 mmHg 27%
    13:00 +37°C° 0 mm 2 mps 705 mmHg 24%
    14:00 +38°C° 0 mm 2 mps 705 mmHg 21%
    15:00 +39°C° 0 mm 2 mps 705 mmHg 21%
    16:00 +39°C° 0 mm 3 mps 704 mmHg 21%
    17:00 +39°C° 0 mm 3 mps 704 mmHg 20%
    18:00 +38°C° 0 mm 3 mps 704 mmHg 24%
    19:00 +37°C° 0 mm 3 mps 704 mmHg 28%
    20:00 +35°C° 0 mm 3 mps 704 mmHg 32%
    21:00 +35°C° 0 mm 2 mps 705 mmHg 34%
    22:00 +33°C° 0 mm 1 mps 705 mmHg 36%
    23:00 +33°C° 0 mm 1 mps 705 mmHg 38%

    Tomorrow, 6 June, Saturday

    Time Temperature Precipitation Wind Pressure Humidity
    00:00 +32°C° 0 mm 1 mps 705 mmHg 40%
    01:00 +29°C° 0 mm 0 mps 705 mmHg 41%
    02:00 +29°C° 0 mm 0 mps 705 mmHg 42%
    03:00 +28°C° 0 mm 0 mps 705 mmHg 43%
    04:00 +30°C° 0 mm 1 mps 705 mmHg 44%
    05:00 +29°C° 0 mm 1 mps 705 mmHg 45%
    06:00 +30°C° 0 mm 1 mps 706 mmHg 43%
    07:00 +31°C° 0 mm 1 mps 706 mmHg 40%
    08:00 +32°C° 0 mm 2 mps 706 mmHg 37%
    09:00 +34°C° 0 mm 2 mps 706 mmHg 35%
    10:00 +35°C° 0 mm 3 mps 706 mmHg 33%
    11:00 +36°C° 0 mm 3 mps 706 mmHg 31%
    12:00 +37°C° 0 mm 3 mps 706 mmHg 29%
    13:00 +38°C° 0 mm 3 mps 705 mmHg 27%
    14:00 +38°C° 0 mm 4 mps 705 mmHg 25%
    15:00 +38°C° 0 mm 4 mps 705 mmHg 25%
    16:00 +38°C° 0 mm 4 mps 704 mmHg 25%
    17:00 +40°C° 0 mm 4 mps 704 mmHg 25%
    18:00 +37°C° 0 mm 4 mps 704 mmHg 30%
    19:00 +36°C° 0 mm 3 mps 704 mmHg 34%
    20:00 +35°C° 0 mm 3 mps 705 mmHg 39%
    21:00 +34°C° 0 mm 2 mps 705 mmHg 40%
    22:00 +33°C° 0 mm 1 mps 705 mmHg 42%
    23:00 +32°C° 0 mm 1 mps 706 mmHg 43%

    Day after tomorrow, 7 June, Sunday

    Time Temperature Precipitation Wind Pressure Humidity
    00:00 +32°C° 0 mm 1 mps 706 mmHg 43%
    01:00 +31°C° 0 mm 1 mps 706 mmHg 42%
    02:00 +29°C° 0 mm 0 mps 705 mmHg 42%
    03:00 +30°C° 0 mm 1 mps 705 mmHg 41%
    04:00 +30°C° 0 mm 1 mps 705 mmHg 40%
    05:00 +29°C° 0 mm 1 mps 705 mmHg 38%
    06:00 +30°C° 0 mm 1 mps 706 mmHg 36%
    07:00 +31°C° 0 mm 1 mps 706 mmHg 34%
    08:00 +32°C° 0 mm 1 mps 706 mmHg 31%
    09:00 +33°C° 0 mm 1 mps 707 mmHg 28%
    10:00 +35°C° 0 mm 2 mps 707 mmHg 25%
    11:00 +37°C° 0 mm 2 mps 707 mmHg 22%
    12:00 +38°C° 0 mm 2 mps 706 mmHg 19%
    13:00 +39°C° 0 mm 2 mps 706 mmHg 16%
    14:00 +40°C° 0 mm 2 mps 705 mmHg 14%
    15:00 +40°C° 0 mm 2 mps 705 mmHg 13%
    16:00 +40°C° 0 mm 3 mps 705 mmHg 13%
    17:00 +42°C° 0 mm 4 mps 704 mmHg 13%
    18:00 +40°C° 0 mm 4 mps 704 mmHg 21%
    19:00 +37°C° 0 mm 3 mps 705 mmHg 29%
    20:00 +36°C° 0 mm 3 mps 705 mmHg 37%
    21:00 +35°C° 0 mm 2 mps 705 mmHg 40%
    22:00 +34°C° 0 mm 2 mps 705 mmHg 43%
    23:00 +33°C° 0 mm 1 mps 706 mmHg 46%

    8 June, Monday

    Time Temperature Precipitation Wind Pressure Humidity
    00:00 +32°C° 0 mm 1 mps 705 mmHg 48%
    01:00 +31°C° 0 mm 1 mps 705 mmHg 50%
    02:00 +29°C° 0 mm 0 mps 705 mmHg 51%
    03:00 +28°C° 0 mm 0 mps 705 mmHg 51%
    04:00 +28°C° 0 mm 0 mps 705 mmHg 51%
    05:00 +27°C° 0 mm 0 mps 705 mmHg 51%
    06:00 +28°C° 0 mm 0 mps 705 mmHg 45%
    07:00 +31°C° 0 mm 1 mps 705 mmHg 39%
    08:00 +33°C° 0 mm 1 mps 706 mmHg 33%
    09:00 +34°C° 0 mm 1 mps 706 mmHg 28%
    10:00 +35°C° 0 mm 1 mps 706 mmHg 24%
    11:00 +36°C° 0 mm 1 mps 706 mmHg 19%
    12:00 +37°C° 0 mm 1 mps 705 mmHg 17%
    13:00 +39°C° 0 mm 1 mps 705 mmHg 14%
    14:00 +40°C° 0 mm 1 mps 705 mmHg 12%
    15:00 +40°C° 0 mm 2 mps 704 mmHg 13%
    16:00 +41°C° 0 mm 2 mps 704 mmHg 14%
    17:00 +42°C° 0 mm 3 mps 704 mmHg 15%
    18:00 +40°C° 0 mm 3 mps 704 mmHg 19%
    19:00 +39°C° 0 mm 3 mps 704 mmHg 24%
    20:00 +38°C° 0 mm 3 mps 705 mmHg 28%
    21:00 +37°C° 0 mm 2 mps 705 mmHg 31%
    22:00 +36°C° 0 mm 2 mps 705 mmHg 34%
    23:00 +34°C° 0 mm 1 mps 705 mmHg 37%

    9 June, Tuesday

    Time Temperature Precipitation Wind Pressure Humidity
    00:00 +34°C° 0 mm 1 mps 705 mmHg 39%
    01:00 +33°C° 0 mm 1 mps 705 mmHg 40%
    02:00 +30°C° 0 mm 0 mps 705 mmHg 41%
    03:00 +30°C° 0 mm 0 mps 705 mmHg 40%
    04:00 +31°C° 0 mm 1 mps 704 mmHg 39%
    05:00 +31°C° 0 mm 1 mps 704 mmHg 39%
    06:00 +32°C° 0 mm 1 mps 705 mmHg 34%
    07:00 +33°C° 0 mm 1 mps 705 mmHg 28%
    08:00 +35°C° 0 mm 1 mps 706 mmHg 23%
    09:00 +36°C° 0 mm 1 mps 706 mmHg 21%
    10:00 +37°C° 0 mm 1 mps 706 mmHg 18%
    11:00 +39°C° 0 mm 1 mps 706 mmHg 16%
    12:00 +40°C° 0 mm 1 mps 706 mmHg 13%
    13:00 +41°C° 0 mm 2 mps 705 mmHg 11%
    14:00 +43°C° 0 mm 2 mps 705 mmHg 8%
    15:00 +44°C° 0 mm 3 mps 705 mmHg 8%
    16:00 +45°C° 0 mm 3 mps 705 mmHg 7%
    17:00 +45°C° 0 mm 4 mps 704 mmHg 7%
    18:00 +43°C° 0 mm 4 mps 704 mmHg 11%
    19:00 +40°C° 0 mm 3 mps 705 mmHg 14%
    20:00 +39°C° 0 mm 3 mps 705 mmHg 17%
    21:00 +38°C° 0 mm 2 mps 705 mmHg 22%
    22:00 +37°C° 0 mm 2 mps 705 mmHg 26%
    23:00 +35°C° 0 mm 1 mps 705 mmHg 30%

    10 June, Wednesday

    Time Temperature Precipitation Wind Pressure Humidity
    00:00 +34°C° 0 mm 1 mps 705 mmHg 29%
    01:00 +34°C° 0 mm 2 mps 705 mmHg 29%
    02:00 +32°C° 0 mm 2 mps 705 mmHg 28%
    03:00 +32°C° 0 mm 2 mps 705 mmHg 28%
    04:00 +31°C° 0 mm 2 mps 705 mmHg 29%
    05:00 +30°C° 0 mm 1 mps 705 mmHg 30%
    06:00 +32°C° 0 mm 2 mps 705 mmHg 27%
    07:00 +34°C° 0 mm 2 mps 706 mmHg 23%
    08:00 +36°C° 0 mm 2 mps 706 mmHg 20%
    09:00 +37°C° 0 mm 2 mps 706 mmHg 18%
    10:00 +38°C° 0 mm 2 mps 706 mmHg 17%
    11:00 +39°C° 0 mm 2 mps 706 mmHg 15%
    12:00 +40°C° 0 mm 2 mps 706 mmHg 14%
    13:00 +41°C° 0 mm 2 mps 706 mmHg 13%
    14:00 +42°C° 0 mm 1 mps 705 mmHg 12%
    15:00 +42°C° 0 mm 2 mps 705 mmHg 11%
    16:00 +42°C° 0 mm 2 mps 705 mmHg 11%
    17:00 +44°C° 0 mm 3 mps 705 mmHg 11%
    18:00 +42°C° 0 mm 3 mps 705 mmHg 16%
    19:00 +39°C° 0 mm 2 mps 705 mmHg 21%
    20:00 +38°C° 0 mm 2 mps 705 mmHg 25%
    21:00 +37°C° 0 mm 2 mps 705 mmHg 26%
    22:00 +35°C° 0 mm 1 mps 706 mmHg 27%
    23:00 +34°C° 0 mm 1 mps 706 mmHg 28%
    Show more